Voltar ao catálogo

PEGASUS DEB

AtivoPO
NORAD 39932·DEBRIS·🇺🇸 United States

Lançado May 19, 1994 de Vandenberg Space Force Base

Loading…

Próximas Passagens (próximas 24 horas)

TLE

EnvelhecendoSource: Space-Track

Época: Sep 8, 2026, 22:55 UTC

1 39932U 94029AGF 26251.95524281  .00000874  00000-0  20398-3 0  9996
2 39932  81.8167 132.3578 0293790 220.8771 137.0052 14.30736663636423

Acompanhe PEGASUS DEB em tempo real com AllMySat

Download on the App Store